Location: *
(38.9800°N, 16.0500°E)
Time: 08:03:34
(UTC+00:00)

USA 234 - Pass Details

Date: 07 April 2020
Orbit: 1102 x 1106 km, 123.0° (Epoch: 14 May)

Event Time Altitude Azimuth Distance (km) Brightness Sun altitude
Rises 03:03:54 0° 126° (SE) 3,907 6.6 -17.0°
Reaches altitude 10° 03:06:23 10° 124° (SE) 2,952 5.9 -16.5°
Maximum altitude 03:12:52 74° 41° (NE) 1,141 3.5 -15.4°
Drops below altitude 10° 03:19:24 10° 317° (NW) 2,963 5.3 -14.2°
Sets 03:21:53 0° 316° (NW) 3,923 5.9 -13.7°
